owner,sensor,date,latitude,longitude,vertical_datum,sea_water_practical_salinity,qcFlag 
DISL,ioos:station:DISL:DISL:1,2013-04-01T00:00:00Z,30.2513,-88.0778,2.0385025,10.31,1111122 
DISL,ioos:station:DISL:DISL:1,2013-04-01T00:30:00Z,30.2513,-88.0778,1.9912584,10.93,1111122 
DISL,ioos:station:DISL:DISL:1,2013-04-01T01:00:00Z,30.2513,-88.0778,1.9802856,10.99,1111122 
DISL,ioos:station:DISL:DISL:1,2013-04-01T01:30:00Z,30.2513,-88.0778,1.9894296,10.93,1111122 
DISL,ioos:station:DISL:DISL:1,2013-04-01T02:00:00Z,30.2513,-88.0778,1.9531584,10.7,1111122 
DISL,ioos:station:DISL:DISL:1,2013-04-01T02:30:00Z,30.2513,-88.0778,1.9077432,10.21,1111122 
DISL,ioos:station:DISL:DISL:1,2013-04-01T03:00:00Z,30.2513,-88.0778,1.88976,8.2,1111122 
DISL,ioos:station:DISL:DISL:1,2013-04-01T03:30:00Z,30.2513,-88.0778,1.868424,7.65,1111122 
DISL,ioos:station:DISL:DISL:1,2013-04-01T04:00:00Z,30.2513,-88.0778,1.8800064,6.84,1111122 
DISL,ioos:station:DISL:DISL:1,2013-04-01T04:30:00Z,30.2513,-88.0778,1.8452592,6.75,1111122 
DISL,ioos:station:DISL:DISL:1,2013-04-01T05:00:00Z,30.2513,-88.0778,1.8306289,6.73,1111122 
DISL,ioos:station:DISL:DISL:1,2013-04-01T05:30:00Z,30.2513,-88.0778,1.8352008,6.4,1111122 
DISL,ioos:station:DISL:DISL:1,2013-04-01T06:00:00Z,30.2513,-88.0778,1.8361152,6.32,1111122 
DISL,ioos:station:DISL:DISL:1,2013-04-01T06:30:00Z,30.2513,-88.0778,1.856232,6.42,1111122 
DISL,ioos:station:DISL:DISL:1,2013-04-01T07:00:00Z,30.2513,-88.0778,1.8528792,6.89,1111122 
DISL,ioos:station:DISL:DISL:1,2013-04-01T07:30:00Z,30.2513,-88.0778,1.8678143,6.65,1111122 
DISL,ioos:station:DISL:DISL:1,2013-04-01T08:00:00Z,30.2513,-88.0778,1.8513552,6.63,1111122 
DISL,ioos:station:DISL:DISL:1,2013-04-01T08:30:00Z,30.2513,-88.0778,1.85928,6.71,1111122 
DISL,ioos:station:DISL:DISL:1,2013-04-01T09:00:00Z,30.2513,-88.0778,1.8830544,5.93,1111122 
DISL,ioos:station:DISL:DISL:1,2013-04-01T09:30:00Z,30.2513,-88.0778,1.8809208,5.67,1111122 
DISL,ioos:station:DISL:DISL:1,2013-04-01T10:00:00Z,30.2513,-88.0778,1.8915888,6.03,1111122 
DISL,ioos:station:DISL:DISL:1,2013-04-01T10:30:00Z,30.2513,-88.0778,1.9104865,6.65,1111122 
DISL,ioos:station:DISL:DISL:1,2013-04-01T11:00:00Z,30.2513,-88.0778,1.9199351,7.26,1111122 
DISL,ioos:station:DISL:DISL:1,2013-04-01T11:30:00Z,30.2513,-88.0778,1.9528537,8.26,1111122 
DISL,ioos:station:DISL:DISL:1,2013-04-01T12:00:00Z,30.2513,-88.0778,1.9747993,7.99,1111122 
DISL,ioos:station:DISL:DISL:1,2013-04-01T12:30:00Z,30.2513,-88.0778,2.0247865,7.69,1111122 
DISL,ioos:station:DISL:DISL:1,2013-04-01T13:00:00Z,30.2513,-88.0778,2.0595336,8.31,1111122 
DISL,ioos:station:DISL:DISL:1,2013-04-01T13:30:00Z,30.2513,-88.0778,2.071116,8.67,1111122 
DISL,ioos:station:DISL:DISL:1,2013-04-01T14:00:00Z,30.2513,-88.0778,2.124456,8.76,1111122 
DISL,ioos:station:DISL:DISL:1,2013-04-01T14:30:00Z,30.2513,-88.0778,2.161032,8.34,1111122 
DISL,ioos:station:DISL:DISL:1,2013-04-01T15:00:00Z,30.2513,-88.0778,2.185416,8.42,1111122 
DISL,ioos:station:DISL:DISL:1,2013-04-01T15:30:00Z,30.2513,-88.0778,2.203704,8.93,1111122 
DISL,ioos:station:DISL:DISL:1,2013-04-01T16:00:00Z,30.2513,-88.0778,2.200656,9.41,1111122 
DISL,ioos:station:DISL:DISL:1,2013-04-01T16:30:00Z,30.2513,-88.0778,2.191512,10.27,1111122 
DISL,ioos:station:DISL:DISL:1,2013-04-01T17:00:00Z,30.2513,-88.0778,2.246376,10.01,1111122 
DISL,ioos:station:DISL:DISL:1,2013-04-01T17:30:00Z,30.2513,-88.0778,2.282952,9.48,1111122 
DISL,ioos:station:DISL:DISL:1,2013-04-01T18:00:00Z,30.2513,-88.0778,2.313432,9.31,1111122 
DISL,ioos:station:DISL:DISL:1,2013-04-01T18:30:00Z,30.2513,-88.0778,2.231136,9.32,1111122 
DISL,ioos:station:DISL:DISL:1,2013-04-01T19:00:00Z,30.2513,-88.0778,2.273808,9.17,1111122 
DISL,ioos:station:DISL:DISL:1,2013-04-01T19:30:00Z,30.2513,-88.0778,2.298192,9.45,1111122 
DISL,ioos:station:DISL:DISL:1,2013-04-01T20:00:00Z,30.2513,-88.0778,2.182368,9.49,1111122 
DISL,ioos:station:DISL:DISL:1,2013-04-01T20:30:00Z,30.2513,-88.0778,2.25552,9.59,1111122 
DISL,ioos:station:DISL:DISL:1,2013-04-01T21:00:00Z,30.2513,-88.0778,2.228088,9.37,1111122 
DISL,ioos:station:DISL:DISL:1,2013-04-01T21:30:00Z,30.2513,-88.0778,2.267712,9.33,1111122 
DISL,ioos:station:DISL:DISL:1,2013-04-01T22:00:00Z,30.2513,-88.0778,2.188464,5.65,1111122 
DISL,ioos:station:DISL:DISL:1,2013-04-01T22:30:00Z,30.2513,-88.0778,2.176272,4.55,1111122 
DISL,ioos:station:DISL:DISL:1,2013-04-01T23:00:00Z,30.2513,-88.0778,2.1116545,4.5,1111122 
DISL,ioos:station:DISL:DISL:1,2013-04-01T23:30:00Z,30.2513,-88.0778,2.1165311,4.5,1111122 
DISL,ioos:station:DISL:DISL:1,2013-04-02T00:00:00Z,30.2513,-88.0778,2.0967193,4.52,1111122 
DISL,ioos:station:DISL:DISL:1,2013-04-02T00:30:00Z,30.2513,-88.0778,2.0595336,4.51,1111122 
DISL,ioos:station:DISL:DISL:1,2013-04-02T01:00:00Z,30.2513,-88.0778,2.066239,4.56,1111122 
DISL,ioos:station:DISL:DISL:1,2013-04-02T01:30:00Z,30.2513,-88.0778,2.0049744,4.56,1111122 
DISL,ioos:station:DISL:DISL:1,2013-04-02T02:00:00Z,30.2513,-88.0778,1.9726657,4.54,1111122 
DISL,ioos:station:DISL:DISL:1,2013-04-02T02:30:00Z,30.2513,-88.0778,1.941576,4.55,1111122 
DISL,ioos:station:DISL:DISL:1,2013-04-02T03:00:00Z,30.2513,-88.0778,1.9178016,4.56,1111122 
DISL,ioos:station:DISL:DISL:1,2013-04-02T03:30:00Z,30.2513,-88.0778,1.8976848,4.7,1111122 
DISL,ioos:station:DISL:DISL:1,2013-04-02T04:00:00Z,30.2513,-88.0778,1.8733008,4.49,1111122 
DISL,ioos:station:DISL:DISL:1,2013-04-02T04:30:00Z,30.2513,-88.0778,1.8510504,4.16,1111122 
DISL,ioos:station:DISL:DISL:1,2013-04-02T05:00:00Z,30.2513,-88.0778,1.8230088,3.94,1111122 
DISL,ioos:station:DISL:DISL:1,2013-04-02T05:30:00Z,30.2513,-88.0778,1.7992344,3.88,1111122 
DISL,ioos:station:DISL:DISL:1,2013-04-02T06:00:00Z,30.2513,-88.0778,1.7995392,3.78,1111122 
DISL,ioos:station:DISL:DISL:1,2013-04-02T06:30:00Z,30.2513,-88.0778,1.7745457,3.67,1111122 
DISL,ioos:station:DISL:DISL:1,2013-04-02T07:00:00Z,30.2513,-88.0778,1.7654016,3.63,1111122 
DISL,ioos:station:DISL:DISL:1,2013-04-02T07:30:00Z,30.2513,-88.0778,1.7611344,3.55,1111122 
DISL,ioos:station:DISL:DISL:1,2013-04-02T08:00:00Z,30.2513,-88.0778,1.7535144,3.4,1111122 
DISL,ioos:station:DISL:DISL:1,2013-04-02T08:30:00Z,30.2513,-88.0778,1.7501616,3.38,1111122 
DISL,ioos:station:DISL:DISL:1,2013-04-02T09:00:00Z,30.2513,-88.0778,1.7565625,3.36,1111122 
DISL,ioos:station:DISL:DISL:1,2013-04-02T09:30:00Z,30.2513,-88.0778,1.7629632,3.35,1111122 
DISL,ioos:station:DISL:DISL:1,2013-04-02T10:00:00Z,30.2513,-88.0778,1.8031968,3.37,1111122 
DISL,ioos:station:DISL:DISL:1,2013-04-02T10:30:00Z,30.2513,-88.0778,1.7980152,3.41,1111122 
DISL,ioos:station:DISL:DISL:1,2013-04-02T11:00:00Z,30.2513,-88.0778,1.8327625,3.48,1111122 
DISL,ioos:station:DISL:DISL:1,2013-04-02T11:30:00Z,30.2513,-88.0778,1.8309336,3.77,1111122 
DISL,ioos:station:DISL:DISL:1,2013-04-02T12:00:00Z,30.2513,-88.0778,1.8635472,3.99,1111122 
DISL,ioos:station:DISL:DISL:1,2013-04-02T12:30:00Z,30.2513,-88.0778,1.8915888,4.28,1111122 
DISL,ioos:station:DISL:DISL:1,2013-04-02T13:00:00Z,30.2513,-88.0778,1.9062192,4.3,1111122 
DISL,ioos:station:DISL:DISL:1,2013-04-02T13:30:00Z,30.2513,-88.0778,1.9363945,4.24,1111122 
DISL,ioos:station:DISL:DISL:1,2013-04-02T14:00:00Z,30.2513,-88.0778,1.9549873,4.09,1111122 
DISL,ioos:station:DISL:DISL:1,2013-04-02T14:30:00Z,30.2513,-88.0778,1.9985737,5.35,1111122 
DISL,ioos:station:DISL:DISL:1,2013-04-02T15:00:00Z,30.2513,-88.0778,2.0068033,7.24,1111122 
DISL,ioos:station:DISL:DISL:1,2013-04-02T15:30:00Z,30.2513,-88.0778,2.0064986,10.6,1111122 
DISL,ioos:station:DISL:DISL:1,2013-04-02T16:00:00Z,30.2513,-88.0778,2.0814793,12.84,1111122 
DISL,ioos:station:DISL:DISL:1,2013-04-02T16:30:00Z,30.2513,-88.0778,2.0766025,14.9,1111122 
DISL,ioos:station:DISL:DISL:1,2013-04-02T17:00:00Z,30.2513,-88.0778,2.1396961,15.98,1111122 
DISL,ioos:station:DISL:DISL:1,2013-04-02T17:30:00Z,30.2513,-88.0778,2.1366482,16.48,1111122 
DISL,ioos:station:DISL:DISL:1,2013-04-02T18:00:00Z,30.2513,-88.0778,2.161032,16.59,1111122 
DISL,ioos:station:DISL:DISL:1,2013-04-02T18:30:00Z,30.2513,-88.0778,2.185416,16.51,1111122 
DISL,ioos:station:DISL:DISL:1,2013-04-02T19:00:00Z,30.2513,-88.0778,2.2098,15.77,1111122 
DISL,ioos:station:DISL:DISL:1,2013-04-02T19:30:00Z,30.2513,-88.0778,2.218944,11.35,1111122 
DISL,ioos:station:DISL:DISL:1,2013-04-02T20:00:00Z,30.2513,-88.0778,2.221992,11.02,1111122 
DISL,ioos:station:DISL:DISL:1,2013-04-02T20:30:00Z,30.2513,-88.0778,2.24028,7.84,1111122 
DISL,ioos:station:DISL:DISL:1,2013-04-02T21:00:00Z,30.2513,-88.0778,2.234184,6.98,1111122 
DISL,ioos:station:DISL:DISL:1,2013-04-02T21:30:00Z,30.2513,-88.0778,2.2250402,7.82,1111122 
DISL,ioos:station:DISL:DISL:1,2013-04-02T22:00:00Z,30.2513,-88.0778,2.234184,6.81,1111122 
DISL,ioos:station:DISL:DISL:1,2013-04-02T22:30:00Z,30.2513,-88.0778,2.2158961,6.82,1111122 
DISL,ioos:station:DISL:DISL:1,2013-04-02T23:00:00Z,30.2513,-88.0778,2.197608,5.46,1111122 
DISL,ioos:station:DISL:DISL:1,2013-04-02T23:30:00Z,30.2513,-88.0778,2.176272,4.76,1111122 
DISL,ioos:station:DISL:DISL:1,2013-04-03T00:00:00Z,30.2513,-88.0778,2.157984,4.3,1111122 
DISL,ioos:station:DISL:DISL:1,2013-04-03T00:30:00Z,30.2513,-88.0778,2.1262848,4.35,1111122 
DISL,ioos:station:DISL:DISL:1,2013-04-03T01:00:00Z,30.2513,-88.0778,2.0845273,4.46,1111122 
DISL,ioos:station:DISL:DISL:1,2013-04-03T01:30:00Z,30.2513,-88.0778,2.0814793,4.67,1111122 
DISL,ioos:station:DISL:DISL:1,2013-04-03T02:00:00Z,30.2513,-88.0778,2.0784311,4.92,1111122 
DISL,ioos:station:DISL:DISL:1,2013-04-03T02:30:00Z,30.2513,-88.0778,2.0342352,5.02,1111122 
DISL,ioos:station:DISL:DISL:1,2013-04-03T03:00:00Z,30.2513,-88.0778,1.9936968,5.04,1111122 
DISL,ioos:station:DISL:DISL:1,2013-04-03T03:30:00Z,30.2513,-88.0778,1.9729705,5.11,1111122 
DISL,ioos:station:DISL:DISL:1,2013-04-03T04:00:00Z,30.2513,-88.0778,1.9525489,5.11,1111122 
DISL,ioos:station:DISL:DISL:1,2013-04-03T04:30:00Z,30.2513,-88.0778,1.9348705,5.14,1111122 
DISL,ioos:station:DISL:DISL:1,2013-04-03T05:00:00Z,30.2513,-88.0778,1.8891504,5.11,1111122 
DISL,ioos:station:DISL:DISL:1,2013-04-03T05:30:00Z,30.2513,-88.0778,1.8861024,4.84,1111122 
DISL,ioos:station:DISL:DISL:1,2013-04-03T06:00:00Z,30.2513,-88.0778,1.8702528,4.51,1111122 
DISL,ioos:station:DISL:DISL:1,2013-04-03T06:30:00Z,30.2513,-88.0778,1.8635472,4.2,1111122 
DISL,ioos:station:DISL:DISL:1,2013-04-03T07:00:00Z,30.2513,-88.0778,1.862328,4.11,1111122 
DISL,ioos:station:DISL:DISL:1,2013-04-03T07:30:00Z,30.2513,-88.0778,1.837944,3.97,1111122 
DISL,ioos:station:DISL:DISL:1,2013-04-03T08:00:00Z,30.2513,-88.0778,1.8467833,3.86,1111122 
DISL,ioos:station:DISL:DISL:1,2013-04-03T08:30:00Z,30.2513,-88.0778,1.8169128,3.76,1111122 
DISL,ioos:station:DISL:DISL:1,2013-04-03T09:00:00Z,30.2513,-88.0778,1.8403825,3.71,1111122 
DISL,ioos:station:DISL:DISL:1,2013-04-03T09:30:00Z,30.2513,-88.0778,1.8617184,3.69,1111122 
DISL,ioos:station:DISL:DISL:1,2013-04-03T10:00:00Z,30.2513,-88.0778,1.8434304,3.7,1111122 
DISL,ioos:station:DISL:DISL:1,2013-04-03T10:30:00Z,30.2513,-88.0778,1.8989041,3.8,1111122 
DISL,ioos:station:DISL:DISL:1,2013-04-03T11:00:00Z,30.2513,-88.0778,1.9412712,4.0,1111122 
DISL,ioos:station:DISL:DISL:1,2013-04-03T11:30:00Z,30.2513,-88.0778,1.9680935,4.53,1111122 
DISL,ioos:station:DISL:DISL:1,2013-04-03T12:00:00Z,30.2513,-88.0778,1.9830289,4.55,1111122 
DISL,ioos:station:DISL:DISL:1,2013-04-03T12:30:00Z,30.2513,-88.0778,1.961388,4.46,1111122 
DISL,ioos:station:DISL:DISL:1,2013-04-03T13:00:00Z,30.2513,-88.0778,1.9595592,4.49,1111122 
DISL,ioos:station:DISL:DISL:1,2013-04-03T13:30:00Z,30.2513,-88.0778,2.007413,4.47,1111122 
DISL,ioos:station:DISL:DISL:1,2013-04-03T14:00:00Z,30.2513,-88.0778,1.9336512,4.41,1111122 
DISL,ioos:station:DISL:DISL:1,2013-04-03T14:30:00Z,30.2513,-88.0778,2.0555713,4.42,1111122 
DISL,ioos:station:DISL:DISL:1,2013-04-03T15:00:00Z,30.2513,-88.0778,2.059229,4.43,1111122 
DISL,ioos:station:DISL:DISL:1,2013-04-03T15:30:00Z,30.2513,-88.0778,1.9885153,4.48,1111122 
DISL,ioos:station:DISL:DISL:1,2013-04-03T16:00:00Z,30.2513,-88.0778,1.9924777,5.51,1111122 
DISL,ioos:station:DISL:DISL:1,2013-04-03T16:30:00Z,30.2513,-88.0778,2.1171408,8.46,1111122 
DISL,ioos:station:DISL:DISL:1,2013-04-03T17:00:00Z,30.2513,-88.0778,2.231136,9.46,1111122 
DISL,ioos:station:DISL:DISL:1,2013-04-03T17:30:00Z,30.2513,-88.0778,2.1271992,8.53,1111122 
DISL,ioos:station:DISL:DISL:1,2013-04-03T18:00:00Z,30.2513,-88.0778,2.258568,7.54,1111122 
DISL,ioos:station:DISL:DISL:1,2013-04-03T18:30:00Z,30.2513,-88.0778,2.0720303,7.55,1111122 
DISL,ioos:station:DISL:DISL:1,2013-04-03T19:00:00Z,30.2513,-88.0778,2.0936713,8.08,1111122 
DISL,ioos:station:DISL:DISL:1,2013-04-03T19:30:00Z,30.2513,-88.0778,2.0890992,9.58,1111122 
DISL,ioos:station:DISL:DISL:1,2013-04-03T20:00:00Z,30.2513,-88.0778,2.1323807,9.68,1111122 
DISL,ioos:station:DISL:DISL:1,2013-04-03T20:30:00Z,30.2513,-88.0778,2.1488402,10.26,1111122 
DISL,ioos:station:DISL:DISL:1,2013-04-03T21:00:00Z,30.2513,-88.0778,2.2128482,10.45,1111122 
DISL,ioos:station:DISL:DISL:1,2013-04-03T21:30:00Z,30.2513,-88.0778,2.295144,10.43,1111122 
DISL,ioos:station:DISL:DISL:1,2013-04-03T22:00:00Z,30.2513,-88.0778,2.298192,10.36,1111122 
DISL,ioos:station:DISL:DISL:1,2013-04-03T22:30:00Z,30.2513,-88.0778,2.389632,9.86,1111122 
DISL,ioos:station:DISL:DISL:1,2013-04-03T23:00:00Z,30.2513,-88.0778,2.398776,8.74,1111122 
DISL,ioos:station:DISL:DISL:1,2013-04-03T23:30:00Z,30.2513,-88.0778,2.401824,7.27,1111122 
DISL,ioos:station:DISL:DISL:1,2013-04-04T00:00:00Z,30.2513,-88.0778,2.252472,6.65,1111122 
DISL,ioos:station:DISL:DISL:1,2013-04-04T00:30:00Z,30.2513,-88.0778,2.2890482,6.44,1111122 
DISL,ioos:station:DISL:DISL:1,2013-04-04T01:00:00Z,30.2513,-88.0778,2.417064,6.46,1111122 
DISL,ioos:station:DISL:DISL:1,2013-04-04T01:30:00Z,30.2513,-88.0778,2.474976,4.82,1111122 
DISL,ioos:station:DISL:DISL:1,2013-04-04T02:00:00Z,30.2513,-88.0778,2.313432,4.47,1111122 
DISL,ioos:station:DISL:DISL:1,2013-04-04T02:30:00Z,30.2513,-88.0778,2.334768,4.45,1111122 
DISL,ioos:station:DISL:DISL:1,2013-04-04T03:00:00Z,30.2513,-88.0778,2.258568,3.7,1111122 
DISL,ioos:station:DISL:DISL:1,2013-04-04T03:30:00Z,30.2513,-88.0778,2.1488402,3.82,1111122 
DISL,ioos:station:DISL:DISL:1,2013-04-04T04:00:00Z,30.2513,-88.0778,2.228088,4.01,1111122 
DISL,ioos:station:DISL:DISL:1,2013-04-04T04:30:00Z,30.2513,-88.0778,2.200656,3.93,1111122 
DISL,ioos:station:DISL:DISL:1,2013-04-04T05:00:00Z,30.2513,-88.0778,2.1143975,4.17,1111122 
DISL,ioos:station:DISL:DISL:1,2013-04-04T05:30:00Z,30.2513,-88.0778,2.1207986,4.56,1111122 
DISL,ioos:station:DISL:DISL:1,2013-04-04T06:00:00Z,30.2513,-88.0778,2.08788,4.66,1111122 
DISL,ioos:station:DISL:DISL:1,2013-04-04T06:30:00Z,30.2513,-88.0778,2.0753832,5.34,1111122 
DISL,ioos:station:DISL:DISL:1,2013-04-04T07:00:00Z,30.2513,-88.0778,1.9906489,4.97,1111122 
DISL,ioos:station:DISL:DISL:1,2013-04-04T07:30:00Z,30.2513,-88.0778,2.0388072,4.42,1111122 
DISL,ioos:station:DISL:DISL:1,2013-04-04T08:00:00Z,30.2513,-88.0778,2.0449033,3.83,1111122 
DISL,ioos:station:DISL:DISL:1,2013-04-04T08:30:00Z,30.2513,-88.0778,2.071116,3.79,1111122 
DISL,ioos:station:DISL:DISL:1,2013-04-04T09:00:00Z,30.2513,-88.0778,2.0016215,3.75,1111122 
DISL,ioos:station:DISL:DISL:1,2013-04-04T09:30:00Z,30.2513,-88.0778,1.9412712,3.7,1111122 
DISL,ioos:station:DISL:DISL:1,2013-04-04T10:00:00Z,30.2513,-88.0778,1.9400519,4.48,1111122 
DISL,ioos:station:DISL:DISL:1,2013-04-04T10:30:00Z,30.2513,-88.0778,1.9729705,5.1,1111122 
DISL,ioos:station:DISL:DISL:1,2013-04-04T11:00:00Z,30.2513,-88.0778,1.9927825,5.82,1111122 
DISL,ioos:station:DISL:DISL:1,2013-04-04T11:30:00Z,30.2513,-88.0778,1.979676,6.33,1111122 
DISL,ioos:station:DISL:DISL:1,2013-04-04T12:00:00Z,30.2513,-88.0778,2.0378928,6.74,1111122 
DISL,ioos:station:DISL:DISL:1,2013-04-04T12:30:00Z,30.2513,-88.0778,2.0199096,7.82,1111122 
DISL,ioos:station:DISL:DISL:1,2013-04-04T13:00:00Z,30.2513,-88.0778,2.0464272,8.37,1111122 
DISL,ioos:station:DISL:DISL:1,2013-04-04T13:30:00Z,30.2513,-88.0778,2.051304,7.35,1111122 
DISL,ioos:station:DISL:DISL:1,2013-04-04T14:00:00Z,30.2513,-88.0778,1.941576,6.44,1111122 
DISL,ioos:station:DISL:DISL:1,2013-04-04T14:30:00Z,30.2513,-88.0778,2.0577047,7.14,1111122 
DISL,ioos:station:DISL:DISL:1,2013-04-04T15:00:00Z,30.2513,-88.0778,2.0936713,7.64,1111122 
DISL,ioos:station:DISL:DISL:1,2013-04-04T15:30:00Z,30.2513,-88.0778,2.115312,7.95,1111122 
DISL,ioos:station:DISL:DISL:1,2013-04-04T16:00:00Z,30.2513,-88.0778,2.1336,8.7,1111122 
DISL,ioos:station:DISL:DISL:1,2013-04-04T16:30:00Z,30.2513,-88.0778,2.157984,8.43,1111122 
DISL,ioos:station:DISL:DISL:1,2013-04-04T17:00:00Z,30.2513,-88.0778,2.182368,9.38,1111122 
DISL,ioos:station:DISL:DISL:1,2013-04-04T17:30:00Z,30.2513,-88.0778,2.185416,8.24,1111122 
DISL,ioos:station:DISL:DISL:1,2013-04-04T18:00:00Z,30.2513,-88.0778,2.203704,9.35,1111122 
DISL,ioos:station:DISL:DISL:1,2013-04-04T18:30:00Z,30.2513,-88.0778,2.16408,7.52,1111122 
DISL,ioos:station:DISL:DISL:1,2013-04-04T19:00:00Z,30.2513,-88.0778,2.1488402,7.64,1111122 
DISL,ioos:station:DISL:DISL:1,2013-04-04T19:30:00Z,30.2513,-88.0778,2.161032,9.84,1111122 
DISL,ioos:station:DISL:DISL:1,2013-04-04T20:00:00Z,30.2513,-88.0778,2.234184,13.73,1111122 
DISL,ioos:station:DISL:DISL:1,2013-04-04T20:30:00Z,30.2513,-88.0778,2.25552,13.27,1111122 
DISL,ioos:station:DISL:DISL:1,2013-04-04T21:00:00Z,30.2513,-88.0778,2.206752,13.96,1111122 
DISL,ioos:station:DISL:DISL:1,2013-04-04T21:30:00Z,30.2513,-88.0778,2.185416,11.9,1111122 
DISL,ioos:station:DISL:DISL:1,2013-04-04T22:00:00Z,30.2513,-88.0778,2.2158961,10.93,1111122 
DISL,ioos:station:DISL:DISL:1,2013-04-04T22:30:00Z,30.2513,-88.0778,2.25552,7.64,1111122 
DISL,ioos:station:DISL:DISL:1,2013-04-04T23:00:00Z,30.2513,-88.0778,2.276856,6.3,1111122 
DISL,ioos:station:DISL:DISL:1,2013-04-04T23:30:00Z,30.2513,-88.0778,2.27076,5.69,1111122 
DISL,ioos:station:DISL:DISL:1,2013-04-05T00:00:00Z,30.2513,-88.0778,2.25552,5.69,1111122 
DISL,ioos:station:DISL:DISL:1,2013-04-05T00:30:00Z,30.2513,-88.0778,2.24028,5.72,1111122 
DISL,ioos:station:DISL:DISL:1,2013-04-05T01:00:00Z,30.2513,-88.0778,2.2250402,5.71,1111122 
DISL,ioos:station:DISL:DISL:1,2013-04-05T01:30:00Z,30.2513,-88.0778,2.246376,5.73,1111122 
DISL,ioos:station:DISL:DISL:1,2013-04-05T02:00:00Z,30.2513,-88.0778,2.25552,5.73,1111122 
DISL,ioos:station:DISL:DISL:1,2013-04-05T02:30:00Z,30.2513,-88.0778,2.218944,5.75,1111122 
DISL,ioos:station:DISL:DISL:1,2013-04-05T03:00:00Z,30.2513,-88.0778,2.161032,5.7,1111122 
DISL,ioos:station:DISL:DISL:1,2013-04-05T03:30:00Z,30.2513,-88.0778,2.173224,5.68,1111122 
DISL,ioos:station:DISL:DISL:1,2013-04-05T04:00:00Z,30.2513,-88.0778,2.157984,5.7,1111122 
DISL,ioos:station:DISL:DISL:1,2013-04-05T04:30:00Z,30.2513,-88.0778,2.100072,5.69,1111122 
DISL,ioos:station:DISL:DISL:1,2013-04-05T05:00:00Z,30.2513,-88.0778,1.9952208,5.73,1111122 
DISL,ioos:station:DISL:DISL:1,2013-04-05T05:30:00Z,30.2513,-88.0778,2.0171664,5.74,1111122 
DISL,ioos:station:DISL:DISL:1,2013-04-05T06:00:00Z,30.2513,-88.0778,1.9680935,5.46,1111122 
DISL,ioos:station:DISL:DISL:1,2013-04-05T06:30:00Z,30.2513,-88.0778,2.0199096,5.54,1111122 
DISL,ioos:station:DISL:DISL:1,2013-04-05T07:00:00Z,30.2513,-88.0778,1.9772376,5.45,1111122 
DISL,ioos:station:DISL:DISL:1,2013-04-05T07:30:00Z,30.2513,-88.0778,1.93548,5.76,1111122 
DISL,ioos:station:DISL:DISL:1,2013-04-05T08:00:00Z,30.2513,-88.0778,1.9028665,5.79,1111122 
DISL,ioos:station:DISL:DISL:1,2013-04-05T08:30:00Z,30.2513,-88.0778,1.8992088,5.77,1111122 
DISL,ioos:station:DISL:DISL:1,2013-04-05T09:00:00Z,30.2513,-88.0778,1.9129249,5.76,1111122 
DISL,ioos:station:DISL:DISL:1,2013-04-05T09:30:00Z,30.2513,-88.0778,1.8425161,5.77,1111122 
DISL,ioos:station:DISL:DISL:1,2013-04-05T10:00:00Z,30.2513,-88.0778,1.8092928,5.68,1111122 
DISL,ioos:station:DISL:DISL:1,2013-04-05T10:30:00Z,30.2513,-88.0778,1.8513552,5.66,1111122 
DISL,ioos:station:DISL:DISL:1,2013-04-05T11:00:00Z,30.2513,-88.0778,1.8400776,5.71,1111122 
DISL,ioos:station:DISL:DISL:1,2013-04-05T11:30:00Z,30.2513,-88.0778,1.853184,5.74,1111122 
DISL,ioos:station:DISL:DISL:1,2013-04-05T12:00:00Z,30.2513,-88.0778,1.8339816,5.78,1111122 
DISL,ioos:station:DISL:DISL:1,2013-04-05T12:30:00Z,30.2513,-88.0778,1.8416016,5.95,1111122 
DISL,ioos:station:DISL:DISL:1,2013-04-05T13:00:00Z,30.2513,-88.0778,1.8565369,5.99,1111122 
DISL,ioos:station:DISL:DISL:1,2013-04-05T13:30:00Z,30.2513,-88.0778,1.8300192,5.93,1111122 
DISL,ioos:station:DISL:DISL:1,2013-04-05T14:00:00Z,30.2513,-88.0778,1.8449544,5.86,1111122 
DISL,ioos:station:DISL:DISL:1,2013-04-05T14:30:00Z,30.2513,-88.0778,1.8547081,5.83,1111122 
DISL,ioos:station:DISL:DISL:1,2013-04-05T15:00:00Z,30.2513,-88.0778,1.8544033,5.81,1111122 
DISL,ioos:station:DISL:DISL:1,2013-04-05T15:30:00Z,30.2513,-88.0778,1.8854928,5.81,1111122 
DISL,ioos:station:DISL:DISL:1,2013-04-05T16:00:00Z,30.2513,-88.0778,1.819656,5.81,1111122 
DISL,ioos:station:DISL:DISL:1,2013-04-05T16:30:00Z,30.2513,-88.0778,1.8187417,5.83,1111122 
DISL,ioos:station:DISL:DISL:1,2013-04-05T17:00:00Z,30.2513,-88.0778,1.8797016,5.88,1111122 
DISL,ioos:station:DISL:DISL:1,2013-04-05T17:30:00Z,30.2513,-88.0778,1.915668,5.93,1111122 
DISL,ioos:station:DISL:DISL:1,2013-04-05T18:00:00Z,30.2513,-88.0778,1.9382232,5.94,1111122 
DISL,ioos:station:DISL:DISL:1,2013-04-05T18:30:00Z,30.2513,-88.0778,1.9114008,5.94,1111122 
DISL,ioos:station:DISL:DISL:1,2013-04-05T19:00:00Z,30.2513,-88.0778,1.9403569,5.77,1111122 
DISL,ioos:station:DISL:DISL:1,2013-04-05T19:30:00Z,30.2513,-88.0778,1.9226785,5.99,1111122 
DISL,ioos:station:DISL:DISL:1,2013-04-05T20:00:00Z,30.2513,-88.0778,1.9589497,8.17,1111122 
DISL,ioos:station:DISL:DISL:1,2013-04-05T20:30:00Z,30.2513,-88.0778,1.9610832,7.64,1111122 
DISL,ioos:station:DISL:DISL:1,2013-04-05T21:00:00Z,30.2513,-88.0778,1.95834,7.88,1111122 
DISL,ioos:station:DISL:DISL:1,2013-04-05T21:30:00Z,30.2513,-88.0778,2.001012,7.69,1111122 
DISL,ioos:station:DISL:DISL:1,2013-04-05T22:00:00Z,30.2513,-88.0778,1.9891248,8.65,1111122 
DISL,ioos:station:DISL:DISL:1,2013-04-05T22:30:00Z,30.2513,-88.0778,1.9973544,11.7,1111122 
DISL,ioos:station:DISL:DISL:1,2013-04-05T23:00:00Z,30.2513,-88.0778,2.007108,12.96,1111122 
DISL,ioos:station:DISL:DISL:1,2013-04-05T23:30:00Z,30.2513,-88.0778,1.9955256,11.75,1111122 
DISL,ioos:station:DISL:DISL:1,2013-04-06T00:00:00Z,30.2513,-88.0778,2.0223482,9.47,1111122 
DISL,ioos:station:DISL:DISL:1,2013-04-06T00:30:00Z,30.2513,-88.0778,2.0168617,8.85,1111122 
DISL,ioos:station:DISL:DISL:1,2013-04-06T01:00:00Z,30.2513,-88.0778,2.0321016,9.21,1111122 
DISL,ioos:station:DISL:DISL:1,2013-04-06T01:30:00Z,30.2513,-88.0778,2.040636,8.76,1111122 
DISL,ioos:station:DISL:DISL:1,2013-04-06T02:00:00Z,30.2513,-88.0778,2.042465,8.37,1111122 
DISL,ioos:station:DISL:DISL:1,2013-04-06T02:30:00Z,30.2513,-88.0778,2.0308824,8.39,1111122 
DISL,ioos:station:DISL:DISL:1,2013-04-06T03:00:00Z,30.2513,-88.0778,2.0113752,8.32,1111122 
DISL,ioos:station:DISL:DISL:1,2013-04-06T03:30:00Z,30.2513,-88.0778,1.9967449,8.32,1111122 
DISL,ioos:station:DISL:DISL:1,2013-04-06T04:00:00Z,30.2513,-88.0778,2.008937,8.32,1111122 
DISL,ioos:station:DISL:DISL:1,2013-04-06T04:30:00Z,30.2513,-88.0778,2.0107656,8.26,1111122 
DISL,ioos:station:DISL:DISL:1,2013-04-06T05:00:00Z,30.2513,-88.0778,1.9546825,8.28,1111122 
DISL,ioos:station:DISL:DISL:1,2013-04-06T05:30:00Z,30.2513,-88.0778,1.9269457,8.15,1111122 
DISL,ioos:station:DISL:DISL:1,2013-04-06T06:00:00Z,30.2513,-88.0778,1.9363945,6.53,1111122 
DISL,ioos:station:DISL:DISL:1,2013-04-06T06:30:00Z,30.2513,-88.0778,1.9302984,6.03,1111122 
DISL,ioos:station:DISL:DISL:1,2013-04-06T07:00:00Z,30.2513,-88.0778,1.9117056,6.19,1111122 
DISL,ioos:station:DISL:DISL:1,2013-04-06T07:30:00Z,30.2513,-88.0778,1.888236,6.25,1111122 
DISL,ioos:station:DISL:DISL:1,2013-04-06T08:00:00Z,30.2513,-88.0778,1.8809208,6.19,1111122 
DISL,ioos:station:DISL:DISL:1,2013-04-06T08:30:00Z,30.2513,-88.0778,1.8522696,6.13,1111122 
DISL,ioos:station:DISL:DISL:1,2013-04-06T09:00:00Z,30.2513,-88.0778,1.8522696,6.2,1111122 
DISL,ioos:station:DISL:DISL:1,2013-04-06T09:30:00Z,30.2513,-88.0778,1.845869,6.35,1111122 
DISL,ioos:station:DISL:DISL:1,2013-04-06T10:00:00Z,30.2513,-88.0778,1.8324577,6.43,1111122 